Thermopolis, WY

5:59 AM MST on January 22, 2018 (GMT -0700)
Thermopolis

Weather History for KTBX - November, 2013

Change the Weather History Date:

Wednesday, November 27, 2013

  Actual Average (KWRL) Record (KWRL)
Temperature  
Mean Temperature 37 °F -  
Max Temperature 44 °F 35 °F 68 °F (1998)
Min Temperature 30 °F 10 °F -14 °F (1985)
Degree Days  
Heating Degree Days 28    
Moisture  
Dew Point 18 °F    
Average Humidity 49    
Maximum Humidity 64    
Minimum Humidity 29    
Precipitation  
Precipitation 0.00 in - - ()
Sea Level Pressure  
Sea Level Pressure 30.20 in    
Wind  
Wind Speed 9 mph (SSE)    
Max Wind Speed 18 mph    
Max Gust Speed 23 mph    
Visibility 10 miles    
Events      
Averages and records for this station are not official NWS values.
T = Trace of Precipitation, MM = Missing Value Source: NWS Daily Summary

Daily Weather History Graph

Daily Weather History Graph

Search for Another Location

Airport or City:

Trip Planner

Search our weather history database for the weather conditions in past years. The results will help you decide how hot, cold, wet, or windy it might be!

Date:

Astronomy

Nov. 27, 2013 Rise Set
Actual Time 7:21 AM MST 4:39 PM MST
Civil Twilight 6:49 AM MST 5:11 PM MST
Nautical Twilight 6:14 AM MST 5:46 PM MST
Astronomical Twilight 5:40 AM MST 6:20 PM MST
Moon 1:17 AM MST (11/27) 1:27 PM MST (11/27)
Length of Visible Light 10h 21m
Length of Day
9h 17m
Waning Crescent, 31% of the Moon is Illuminated
Nov 27
Waning Crescent
Dec 2
New
Dec 9
First Quarter
Dec 17
Full
Dec 25
Last Quarter

Hourly Weather History & Observations

Time (MST) Temp. Windchill Dew Point Humidity Pressure Visibility Wind Dir Wind Speed Gust Speed Precip Events Conditions
12:15 AM 32.0 °F 22.1 °F 21.2 °F 64% 30.26 in 10.0 mi SSE 13.8 mph - N/A   Unknown
12:35 AM 32.0 °F 24.2 °F 21.2 °F 64% 30.26 in 10.0 mi SSE 9.2 mph - N/A   Unknown
12:55 AM 32.0 °F 24.8 °F 21.2 °F 64% 30.25 in 10.0 mi SE 8.1 mph - N/A   Unknown
1:15 AM 32.0 °F 23.6 °F 21.2 °F 64% 30.24 in 10.0 mi SSE 10.4 mph - N/A   Unknown
1:35 AM 32.0 °F 23.0 °F 19.4 °F 60% 30.24 in 10.0 mi SSE 11.5 mph 17.3 mph N/A   Unknown
1:55 AM 32.0 °F 23.0 °F 19.4 °F 60% 30.24 in 10.0 mi South 11.5 mph - N/A   Unknown
2:15 AM 32.0 °F 23.6 °F 19.4 °F 60% 30.24 in 10.0 mi South 10.4 mph - N/A   Unknown
2:35 AM 32.0 °F 23.0 °F 19.4 °F 60% 30.24 in 10.0 mi South 11.5 mph - N/A   Unknown
2:55 AM 32.0 °F 24.8 °F 21.2 °F 64% 30.23 in 10.0 mi SE 8.1 mph - N/A   Unknown
3:15 AM 32.0 °F 24.2 °F 21.2 °F 64% 30.23 in 10.0 mi SSE 9.2 mph - N/A   Unknown
3:35 AM 32.0 °F 24.8 °F 21.2 °F 64% 30.23 in 10.0 mi SE 8.1 mph - N/A   Unknown
3:55 AM 32.0 °F 24.2 °F 19.4 °F 60% 30.22 in 10.0 mi SSE 9.2 mph - N/A   Unknown
4:15 AM 32.0 °F 24.8 °F 21.2 °F 64% 30.21 in 10.0 mi SSE 8.1 mph - N/A   Unknown
4:35 AM 33.8 °F 25.3 °F 19.4 °F 56% 30.21 in 10.0 mi South 11.5 mph - N/A   Unknown
4:55 AM 33.8 °F 25.8 °F 19.4 °F 56% 30.21 in 10.0 mi SSE 10.4 mph - N/A   Unknown
5:15 AM 32.0 °F 24.2 °F 19.4 °F 60% 30.21 in 10.0 mi SSE 9.2 mph - N/A   Unknown
5:35 AM 32.0 °F 24.2 °F 19.4 °F 60% 30.20 in 10.0 mi SSE 9.2 mph - N/A   Unknown
5:55 AM 30.2 °F 21.3 °F 19.4 °F 64% 30.20 in 10.0 mi SSE 10.4 mph - N/A   Unknown
6:15 AM 32.0 °F 24.8 °F 19.4 °F 60% 30.20 in 10.0 mi SSE 8.1 mph - N/A   Unknown
6:35 AM 30.2 °F 21.9 °F 19.4 °F 64% 30.20 in 10.0 mi SE 9.2 mph - N/A   Unknown
6:55 AM 30.2 °F 21.3 °F 19.4 °F 64% 30.20 in 10.0 mi SSE 10.4 mph 16.1 mph N/A   Unknown
7:15 AM 30.2 °F 21.9 °F 19.4 °F 64% 30.20 in 10.0 mi SSE 9.2 mph - N/A   Unknown
7:35 AM 32.0 °F 24.8 °F 19.4 °F 60% 30.20 in 10.0 mi SSE 8.1 mph - N/A   Unknown
7:55 AM 32.0 °F 26.4 °F 19.4 °F 60% 30.20 in 10.0 mi SSE 5.8 mph - N/A   Unknown
8:15 AM 35.6 °F 27.1 °F 17.6 °F 48% 30.19 in 10.0 mi South 12.7 mph 16.1 mph N/A   Unknown
8:35 AM 37.4 °F 27.5 °F 14.0 °F 38% 30.20 in 10.0 mi SSW 18.4 mph 21.9 mph N/A   Unknown
8:55 AM 39.2 °F 30.5 °F 14.0 °F 36% 30.20 in 10.0 mi SW 16.1 mph 23.0 mph N/A   Unknown
9:15 AM 41.0 °F 33.5 °F 14.0 °F 33% 30.20 in 10.0 mi SW 13.8 mph - N/A   Unknown
9:35 AM 39.2 °F 32.0 °F 14.0 °F 36% 30.20 in 10.0 mi SSW 11.5 mph 16.1 mph N/A   Unknown
9:55 AM 39.2 °F 31.6 °F 15.8 °F 39% 30.20 in 10.0 mi SSW 12.7 mph 20.7 mph N/A   Unknown
10:15 AM 33.8 °F 25.8 °F 19.4 °F 56% 30.20 in 10.0 mi South 10.4 mph - N/A   Unknown
10:35 AM 37.4 °F 29.3 °F 17.6 °F 45% 30.20 in 10.0 mi SSW 12.7 mph 18.4 mph N/A   Unknown
10:55 AM 37.4 °F 29.3 °F 17.6 °F 45% 30.19 in 10.0 mi SSW 12.7 mph - N/A   Unknown
11:15 AM 41.0 °F 34.7 °F 17.6 °F 39% 30.19 in 10.0 mi WSW 10.4 mph - N/A   Unknown
11:35 AM 42.8 °F 40.1 °F 17.6 °F 36% 30.19 in 10.0 mi SW 4.6 mph - N/A   Unknown
11:55 AM 42.8 °F 40.1 °F 17.6 °F 36% 30.18 in 10.0 mi SSE 4.6 mph - N/A   Unknown
12:15 PM 37.4 °F 34.9 °F 21.2 °F 52% 30.18 in 10.0 mi SSE 3.5 mph - N/A   Unknown
12:35 PM 39.2 °F 37.0 °F 21.2 °F 49% 30.18 in 10.0 mi SSE 3.5 mph - N/A   Unknown
12:55 PM 42.8 °F - 19.4 °F 39% 30.17 in 10.0 mi Calm Calm - N/A   Unknown
1:15 PM 42.8 °F - 14.0 °F 31% 30.16 in 10.0 mi Calm Calm - N/A   Unknown
1:35 PM 44.6 °F - 14.0 °F 29% 30.16 in 10.0 mi Calm Calm - N/A   Unknown
1:55 PM 42.8 °F 40.1 °F 19.4 °F 39% 30.16 in 10.0 mi NW 4.6 mph - N/A   Unknown
2:15 PM 37.4 °F 32.8 °F 21.2 °F 52% 30.16 in 10.0 mi NW 5.8 mph - N/A   Unknown
2:35 PM 39.2 °F 33.6 °F 19.4 °F 45% 30.16 in 10.0 mi NNW 8.1 mph - N/A   Unknown
2:55 PM 37.4 °F 32.1 °F 19.4 °F 48% 30.16 in 10.0 mi NNW 6.9 mph - N/A   Unknown
3:15 PM 39.2 °F 33.6 °F 17.6 °F 42% 30.16 in 10.0 mi NW 8.1 mph - N/A   Unknown
3:35 PM 41.0 °F 34.7 °F 15.8 °F 36% 30.16 in 10.0 mi NNW 10.4 mph - N/A   Unknown
3:55 PM 41.0 °F 34.3 °F 14.0 °F 33% 30.16 in 10.0 mi North 11.5 mph - N/A   Unknown
4:15 PM 41.0 °F 34.3 °F 12.2 °F 31% 30.16 in 10.0 mi North 11.5 mph - N/A   Unknown
4:35 PM 41.0 °F 34.7 °F 14.0 °F 33% 30.16 in 10.0 mi North 10.4 mph - N/A   Unknown
4:55 PM 41.0 °F 35.2 °F 14.0 °F 33% 30.16 in 10.0 mi North 9.2 mph - N/A   Unknown
5:15 PM 41.0 °F 35.2 °F 14.0 °F 33% 30.16 in 10.0 mi North 9.2 mph - N/A   Unknown
5:35 PM 41.0 °F 35.2 °F 12.2 °F 31% 30.17 in 10.0 mi North 9.2 mph - N/A   Unknown
5:55 PM 41.0 °F 35.8 °F 10.4 °F 29% 30.18 in 10.0 mi North 8.1 mph - N/A   Unknown
6:15 PM 39.2 °F 34.2 °F 12.2 °F 33% 30.18 in 10.0 mi NNW 6.9 mph - N/A   Unknown
6:35 PM 37.4 °F 33.8 °F 15.8 °F 41% 30.18 in 10.0 mi NNW 4.6 mph - N/A   Unknown
6:55 PM 41.0 °F 39.0 °F 12.2 °F 31% 30.18 in 10.0 mi North 3.5 mph - N/A   Unknown
7:15 PM 39.2 °F 37.0 °F 17.6 °F 42% 30.18 in 10.0 mi NNW 3.5 mph - N/A   Unknown
7:35 PM 39.2 °F - 15.8 °F 39% 30.18 in 10.0 mi Calm Calm - N/A   Unknown
7:55 PM 39.2 °F - 19.4 °F 45% 30.18 in 10.0 mi Calm Calm - N/A   Unknown
8:15 PM 39.2 °F - 19.4 °F 45% 30.19 in 10.0 mi Calm Calm - N/A   Unknown
8:35 PM 39.2 °F - 14.0 °F 36% 30.20 in 10.0 mi Calm Calm - N/A   Unknown
8:55 PM 39.2 °F - 14.0 °F 36% 30.19 in 10.0 mi Calm Calm - N/A   Unknown
9:15 PM 37.4 °F 34.9 °F 17.6 °F 45% 30.20 in 10.0 mi SSE 3.5 mph - N/A   Unknown
9:35 PM 35.6 °F 29.9 °F 19.4 °F 52% 30.20 in 10.0 mi ESE 6.9 mph - N/A   Unknown
9:55 PM 35.6 °F 28.6 °F 19.4 °F 52% 30.20 in 10.0 mi ESE 9.2 mph - N/A   Unknown
10:15 PM 33.8 °F 24.3 °F 19.4 °F 56% 30.20 in 10.0 mi ESE 13.8 mph - N/A   Unknown
10:35 PM 32.0 °F 23.0 °F 21.2 °F 64% 30.20 in 10.0 mi ESE 11.5 mph - N/A   Unknown
10:55 PM 32.0 °F 21.6 °F 21.2 °F 64% 30.20 in 10.0 mi ESE 15.0 mph - N/A   Unknown
11:15 PM 32.0 °F 22.1 °F 21.2 °F 64% 30.20 in 10.0 mi ESE 13.8 mph - N/A   Unknown
11:35 PM 32.0 °F 22.5 °F 21.2 °F 64% 30.20 in 10.0 mi ESE 12.7 mph - N/A   Unknown
11:55 PM 32.0 °F 22.5 °F 21.2 °F 64% 30.20 in 10.0 mi ESE 12.7 mph - N/A   Unknown